Dalhart, TX

10:47 AM CST on February 27, 2017 (GMT -0600)
Dalhart Municipal

Weather History for KDHT - October, 2011

Change the Weather History Date:

Thursday, October 6, 2011

  Actual Average Record
Temperature  
Mean Temperature 71 °F 59 °F  
Max Temperature 85 °F 74 °F 89 °F (2007)
Min Temperature 57 °F 44 °F 32 °F (2001)
Degree Days  
Heating Degree Days 0 7  
Month to date heating degree days 4 35  
Since 1 July heating degree days 27 98  
Cooling Degree Days 6 1  
Month to date cooling degree days 19 6  
Year to date cooling degree days 1782 1134  
Growing Degree Days 20 (Base 50)    
Moisture  
Dew Point 55 °F    
Average Humidity 62    
Maximum Humidity 100    
Minimum Humidity 23    
Precipitation  
Precipitation 0.00 in 0.04 in 1.19 in (1953)
Month to date precipitation 0.39 0.27  
Year to date precipitation 3.88 15.27  
Snow  
Snow 0.00 in 0.00 in 0.00 in ()
Month to date snowfall 0.0 0.0  
Since 1 July snowfall 0.0 0.0  
Since 1 September snowfall 0.0 0.0  
Snow Depth 0.00 in    
Sea Level Pressure  
Sea Level Pressure 29.69 in    
Wind  
Wind Speed 25 mph (South)    
Max Wind Speed 41 mph    
Max Gust Speed 49 mph    
Visibility 8 miles    
Events      
T = Trace of Precipitation, MM = Missing Value Source: NWS Daily Summary

Daily Weather History Graph

Daily Weather History Graph

Search for Another Location

Airport or City:

Trip Planner

Search our weather history database for the weather conditions in past years. The results will help you decide how hot, cold, wet, or windy it might be!

Date:

Astronomy

Oct. 06, 2011 Rise Set
Actual Time 7:49 AM CDT 7:26 PM CDT
Civil Twilight 7:23 AM CDT 7:52 PM CDT
Nautical Twilight 6:53 AM CDT 8:22 PM CDT
Astronomical Twilight 6:24 AM CDT 8:51 PM CDT
Moon 4:33 PM CDT (10/6) 2:49 AM CDT (10/6)
Length of Visible Light 12h 29m
Length of Day
11h 37m
Waxing Gibbous, 75% of the Moon is Illuminated
Oct 6
Waxing Gibbous
Oct 11
Full
Oct 19
Last Quarter
Oct 26
New
Nov 2
First Quarter

Hourly Weather History & Observations

Time (CDT) Temp. Heat Index Dew Point Humidity Pressure Visibility Wind Dir Wind Speed Gust Speed Precip Events Conditions
12:01 AM 60.8 °F - 57.2 °F 88% 29.92 in 8.0 mi South 20.7 mph 27.6 mph N/A   Overcast
12:53 AM 61.0 °F - 57.9 °F 90% 29.79 in 9.0 mi SSE 21.9 mph 26.5 mph N/A   Overcast
1:26 AM 60.8 °F - 57.2 °F 88% 29.89 in 8.0 mi South 19.6 mph - N/A   Mostly Cloudy
1:50 AM 60.8 °F - 57.2 °F 88% 29.88 in 8.0 mi South 20.7 mph - N/A   Mostly Cloudy
1:53 AM 60.1 °F - 57.9 °F 93% 29.76 in 8.0 mi SSE 20.7 mph - N/A   Mostly Cloudy
2:06 AM 60.8 °F - 57.2 °F 88% 29.88 in 7.0 mi SSE 17.3 mph - N/A   Partly Cloudy
2:53 AM 59.0 °F - 57.9 °F 96% 29.74 in 7.0 mi South 17.3 mph - N/A   Clear
3:53 AM 59.0 °F - 57.0 °F 93% 29.75 in 6.0 mi South 15.0 mph - N/A   Clear
4:53 AM 57.9 °F - 57.0 °F 97% 29.73 in 6.0 mi South 16.1 mph - N/A   Clear
5:53 AM 57.9 °F - 55.9 °F 93% 29.72 in 6.0 mi South 16.1 mph - N/A   Clear
6:53 AM 57.0 °F - 55.9 °F 96% 29.73 in 6.0 mi South 13.8 mph - N/A   Clear
7:53 AM 57.0 °F - 55.0 °F 93% 29.73 in 6.0 mi South 15.0 mph - N/A   Clear
8:53 AM 59.0 °F - 55.9 °F 90% 29.73 in 7.0 mi South 18.4 mph - N/A   Clear
10:53 AM 66.9 °F - 57.0 °F 70% 29.71 in 10.0 mi South 23.0 mph 33.4 mph N/A   Clear
11:53 AM 71.1 °F - 55.9 °F 59% 29.69 in 10.0 mi South 27.6 mph 34.5 mph N/A   Clear
12:53 PM 75.0 °F - 55.0 °F 50% 29.65 in 10.0 mi South 27.6 mph 36.8 mph N/A   Clear
1:53 PM 79.0 °F - 52.0 °F 39% 29.62 in 10.0 mi South 28.8 mph 38.0 mph N/A   Clear
2:53 PM 82.0 °F - 50.0 °F 33% 29.58 in 10.0 mi South 32.2 mph 42.6 mph N/A   Clear
3:53 PM 84.9 °F - 42.1 °F 22% 29.54 in 10.0 mi South 40.3 mph 49.5 mph N/A   Clear
4:53 PM 80.1 °F 80.1 °F 55.0 °F 42% 29.55 in 10.0 mi SSE 41.4 mph 49.5 mph N/A   Clear
5:53 PM 79.0 °F - 53.1 °F 40% 29.54 in 10.0 mi South 33.4 mph 41.4 mph N/A   Mostly Cloudy
6:53 PM 79.0 °F - 53.1 °F 40% 29.55 in 10.0 mi South 31.1 mph 42.6 mph N/A   Partly Cloudy
7:53 PM 75.9 °F - 52.0 °F 43% 29.57 in 10.0 mi South 24.2 mph 33.4 mph N/A   Clear
8:53 PM 75.0 °F - 51.1 °F 43% 29.60 in 10.0 mi South 24.2 mph 32.2 mph N/A   Clear
9:53 PM 72.0 °F - 53.1 °F 51% 29.62 in 10.0 mi South 25.3 mph 32.2 mph N/A   Clear
10:53 PM 73.0 °F - 55.9 °F 55% 29.62 in 8.0 mi South 28.8 mph 35.7 mph N/A   Clear
11:53 PM 71.1 °F - 57.0 °F 61% 29.63 in 8.0 mi South 26.5 mph 34.5 mph N/A   Clear